Weather History for Badajoz, Spain

Change the Weather History Date:

Monday, September 2, 2013

  Actual Average Record
Temperature  
Mean Temperature 77 °F -  
Max Temperature 95 °F - - ()
Min Temperature 59 °F - - ()
Cooling Degree Days 12    
Growing Degree Days 27 (Base 50)    
Moisture  
Dew Point 54 °F    
Average Humidity 42    
Maximum Humidity 88    
Minimum Humidity 18    
Precipitation  
Precipitation 0.00 in 0.03 in - ()
Sea Level Pressure  
Sea Level Pressure 30.11 in    
Wind  
Wind Speed 2 mph ()    
Max Wind Speed 5 mph    
Max Gust Speed -    
Visibility 9.0 miles    
Events      
T = Trace of Precipitation, MM = Missing Value Source: Averaged Metar Reports

Daily Weather History Graph

Daily Weather History Graph

Search for Another Location

Airport:

Trip Planner

Search our weather history database for the weather conditions in past years. The results will help you decide how hot, cold, wet, or windy it might be!

Date:

Astronomy

Sep. 02, 2013 Rise Set
Actual Time 7:57 AM CEST 8:56 PM CEST
Civil Twilight 7:29 AM CEST 9:23 PM CEST
Nautical Twilight 6:57 AM CEST 9:55 PM CEST
Astronomical Twilight 6:23 AM CEST 10:29 PM CEST
Moon 5:02 AM CEST (9/2) 7:00 PM CEST (9/2)
Length of Visible Light 13h 53m
Length of Day
12h 58m
Waning Crescent, 9% of the Moon is Illuminated
Sep 2
Waning Crescent
Sep 5
New
Sep 12
First Quarter
Sep 19
Full
Sep 27
Last Quarter

Hourly Weather History & Observations

Time (CEST) Temp. Heat Index Dew Point Humidity Pressure Visibility Wind Dir Wind Speed Gust Speed Precip Events Conditions
6:00 AM 64.4 °F - 51.8 °F 64% 30.09 in - Calm Calm - N/A   Clear
7:00 AM 64.4 °F - 51.8 °F 64% 30.09 in - SSE 2.3 mph - N/A   Clear
8:00 AM 64 °F - 53 °F 60% 30.12 in 6 mi NE 2.3 mph - -  
8:00 AM 59.0 °F - 55.4 °F 88% 30.12 in - ENE 1.2 mph - N/A   Clear
9:00 AM 64.4 °F - 55.4 °F 73% 30.12 in - Variable 1.2 mph - N/A   Clear
10:00 AM 69.8 °F - 57.2 °F 64% 30.15 in - Calm Calm - N/A   Clear
11:00 AM 75.2 °F - 55.4 °F 50% 30.15 in - ENE 4.6 mph - N/A   Clear
12:00 PM 80.6 °F 80.5 °F 55.4 °F 42% 30.15 in - ENE 4.6 mph - N/A   Clear
1:00 PM 84.2 °F 83.0 °F 55.4 °F 37% 30.15 in - East 3.5 mph - N/A   Clear
2:00 PM 88 °F - 62 °F 32% 30.12 in 9 mi NE 4.6 mph - -  
2:00 PM 87.8 °F 86.1 °F 55.4 °F 33% 30.15 in - Variable 2.3 mph - N/A   Clear
3:00 PM 91.4 °F 89.4 °F 55.4 °F 29% 30.12 in - Variable 2.3 mph - N/A   Clear
4:00 PM 93.2 °F 91.3 °F 55.4 °F 28% 30.09 in - ENE 3.5 mph - N/A   Clear
5:00 PM 95.0 °F - 51.8 °F 23% 30.09 in - ENE 2.3 mph - N/A   Clear
6:00 PM 95.0 °F - 44.6 °F 18% 30.09 in - ENE 4.6 mph - N/A   Clear
7:00 PM 95.0 °F - 44.6 °F 18% 30.09 in - ENE 4.6 mph - N/A   Clear
8:00 PM 93 °F - 57 °F 21% 30.04 in 12 mi NE 3.5 mph - -   Scattered Clouds
8:00 PM 93.2 °F - 48.2 °F 21% 30.06 in - NE 1.2 mph - N/A   Clear
9:00 PM 87.8 °F 85.7 °F 53.6 °F 31% 30.09 in - NNE 1.2 mph - N/A   Clear